Home   Weather   Barnstable   Past weeks
Flag for USA

Past Weather in Barnstable, Massachusetts, USA — Yesterday and Last 2 Weeks

Now
83 °F

Sunny.


Feels Like: 88 °F
Forecast: 84 / 74 °F
Wind: 17 mph from Southwest

Location: Barnstable Municipal-Boardman Airport

Current Time: Aug 22, 2019 at 6:26:56 pm

Latest Report: Aug 22, 2019 at 5:56 pm


Visibility: 10 mi

Pressure: 29.81 "Hg

Humidity: 68%

Dew Point: 71 °F

Location of BarnstableLocation

Past Weather in Barnstable — Graph

°F

Barnstable Temperature Yesterday

Maximum temperature yesterday: 81 °F (at 4:56 pm)
Minimum temperature yesterday: 70 °F (at 4:56 am)
Average temperature yesterday: 78 °F

High & Low Weather Summary for the Past Weeks

 TemperatureHumidityPressure
High85 °F (Aug 9, 1:56 pm)97% (Aug 17, 5:39 am)30.08 "Hg (Aug 17, 5:39 am)
Low60 °F (Aug 11, 4:56 am)34% (Aug 9, 1:56 pm)29.65 "Hg (Aug 8, 10:56 pm)
Average74 °F78%29.90 "Hg
* Reported Aug 7 3:56 pm — Aug 22 3:56 pm, Barnstable. Weather by CustomWeather, © 2019

Note: Actual official high and low records may vary slightly from our data, if they occured in-between our weather recording intervals... More about our weather records

Advertising

Barnstable Weather History for the Previous 24 Hours

Scroll right to see more
 ConditionsComfort  
Time TempWeatherWind HumidityBarometerVisibility
3:56 pm
Thu, Aug 22
85 °FSunny.20 mph63%29.81 "Hg10 mi
2:56 pm85 °FSunny.16 mph68%29.82 "Hg10 mi
1:56 pm84 °FSunny.15 mph72%29.82 "Hg10 mi
12:56 pm85 °FSunny.14 mph70%29.82 "Hg10 mi
11:56 am83 °FSunny.10 mph74%29.84 "Hg10 mi
10:56 am83 °FPassing clouds.10 mph72%29.85 "Hg10 mi
9:56 am82 °FScattered clouds.7 mph77%29.85 "Hg10 mi
8:56 am81 °FScattered clouds.7 mph79%29.84 "Hg10 mi
7:56 am79 °FMostly cloudy.8 mph84%29.85 "Hg10 mi
7:05 am78 °FPartly sunny.9 mph87%29.85 "Hg8 mi
6:56 am77 °FScattered clouds.7 mph90%29.85 "Hg8 mi
6:28 am77 °FScattered clouds.6 mph88%29.84 "Hg7 mi
5:56 am77 °FPartly sunny.8 mph88%29.84 "Hg9 mi
5:23 am77 °FPartly cloudy.7 mph88%29.83 "Hg9 mi
4:56 am76 °FClear.8 mph88%29.83 "Hg10 mi
3:56 am77 °FClear.12 mph88%29.83 "Hg9 mi
3:32 am77 °FPassing clouds.12 mph85%29.83 "Hg10 mi
3:15 am78 °FPassing clouds.13 mph84%29.83 "Hg10 mi
2:56 am78 °FMostly cloudy.16 mph87%29.84 "Hg9 mi
1:56 am77 °FMostly cloudy.10 mph85%29.86 "Hg9 mi
12:56 am78 °FMostly cloudy.12 mph79%29.86 "Hg10 mi
12:31 am78 °FMostly cloudy.14 mph79%29.86 "Hg10 mi
12:06 am78 °FPassing clouds.14 mph82%29.87 "Hg10 mi
11:56 pm
Wed, Aug 21
78 °FPartly cloudy.16 mph82%29.86 "Hg10 mi
11:32 pm78 °FPartly cloudy.18 mph84%29.86 "Hg10 mi
11:18 pm79 °FPassing clouds.20 mph84%29.86 "Hg10 mi
10:56 pm79 °FPassing clouds.17 mph84%29.86 "Hg9 mi
10:38 pm78 °FPassing clouds.15 mph87%29.86 "Hg8 mi
9:56 pm79 °FLow clouds.18 mph88%29.88 "Hg9 mi
9:33 pm78 °FPassing clouds.15 mph87%29.87 "Hg10 mi
9:20 pm79 °FPassing clouds.13 mph84%29.88 "Hg10 mi
8:56 pm78 °FPassing clouds.16 mph87%29.88 "Hg10 mi
7:56 pm78 °FOvercast.15 mph84%29.88 "Hg10 mi
6:56 pm78 °FPassing clouds.13 mph84%29.88 "Hg9 mi
Weather by CustomWeather, © 2019

See weather overview